Farrell Flat Airport

Jump to: basic info | weather | frequencies | runways | comments

Related pages: nearby airports | nearby navaids | notams | map

Basic information (top)

Codes: YFFT
Location: lon -33.833302, lat 138.766998
Status: small_airport

Weather (top)

Current conditions for Adelaide International Airport 68nm (125km) S (rec'd 2014/09/01 13:00Z):

YPAD 011300Z 17009KT 9999 SCT028 BKN055 10/06 Q1019 INTER 1300/1500 21015G28KT 5000 SHRA SCT015 BKN030

Airport forecast for Adelaide International Airport 68nm (125km) S (rec'd 2014/09/01 00:03Z):

TAF YPAD 312339Z 0100/0206 23008KT 9999 -SHRA SCT020 BKN030 
     FM010100 22014KT 9999 -SHRA SCT030 INTER 0100/0115 21015G28KT 5000 SHRA SCT015 BKN030 PROB30 INTER 0106/0110 21018G30KT 3000 TSRA SCT015 SCT030CB 
      RMK

Frequencies (top)

Verify before use: may be inaccurate or out of date.

CTAF: 122.4 MHz (CTAF)
MISC: 114.2 MHz (MISC)
MISC: 119.8 MHz (MISC)
MISC: 121.3 MHz (MISC)

Runways (top)

03/21: 1,443 ft (440 m) — grass — not lighted

14/32: 2,486 ft (758 m) — grass — not lighted

Latest comments (top)

No comments yet for Farrell Flat Airport

More... (top)

See also NOTAMs and nearby airports and navaids, or visit the Farrell Flat Airport page at the main OurAirports website..